Location: Les Chemineaux
(47.3024°N, 1.5104°E)
Time: 19:21:01
(UTC+00:00)

PSLV R/B - Pass Details

Date: 19 May 2025
Orbit: 400 x 430 km, 97.7° (Epoch: 23 June)

Event Time Altitude Azimuth Distance (km) Brightness Sun altitude
Rises 19:23:18 0° 85° (E) 2,367 6.6 0.0°
Enters shadow 20:20:26 -71° 171° (S) 12,493 10.6 -7.9°
Maximum altitude 20:57:08 44° 72° (ENE) 594 3.8 -12.3°
